TimeEDT,TemperatureF,Dew PointF,Humidity,Sea Level PressureIn,VisibilityMPH,Wind Direction,Wind SpeedMPH,Gust SpeedMPH,PrecipitationIn,Events,Conditions,WindDirDegrees,DateUTC
12:52 AM,73.0,70.0,90,30.07,8.0,Calm,Calm,-,N/A,,Mostly Cloudy,0,2013-08-11 04:52:00
1:52 AM,73.9,70.0,87,30.07,10.0,Calm,Calm,-,N/A,,Overcast,0,2013-08-11 05:52:00
2:52 AM,73.0,70.0,90,30.07,10.0,Calm,Calm,-,N/A,,Overcast,0,2013-08-11 06:52:00
3:52 AM,71.1,71.1,100,30.06,5.0,Calm,Calm,-,N/A,,Overcast,0,2013-08-11 07:52:00
4:52 AM,73.0,70.0,90,30.06,9.0,Calm,Calm,-,N/A,,Overcast,0,2013-08-11 08:52:00
5:52 AM,72.0,70.0,93,30.06,8.0,Calm,Calm,-,N/A,,Overcast,0,2013-08-11 09:52:00
6:52 AM,71.1,70.0,96,30.07,5.0,Calm,Calm,-,N/A,,Overcast,0,2013-08-11 10:52:00
7:52 AM,72.0,71.1,97,30.07,5.0,Calm,Calm,-,N/A,,Mostly Cloudy,0,2013-08-11 11:52:00
8:52 AM,75.0,71.1,87,30.08,6.0,Calm,Calm,-,N/A,,Mostly Cloudy,0,2013-08-11 12:52:00
9:52 AM,79.0,70.0,74,30.08,8.0,Calm,Calm,-,N/A,,Mostly Cloudy,0,2013-08-11 13:52:00
11:52 AM,82.0,68.0,62,30.08,10.0,West,5.8,-,N/A,,Scattered Clouds,270,2013-08-11 15:52:00
12:52 PM,84.0,69.1,61,30.07,10.0,West,8.1,-,N/A,,Scattered Clouds,280,2013-08-11 16:52:00
1:52 PM,82.0,68.0,62,30.06,10.0,WNW,8.1,-,N/A,,Scattered Clouds,300,2013-08-11 17:52:00
2:52 PM,86.0,68.0,55,30.04,10.0,West,9.2,-,N/A,,Scattered Clouds,260,2013-08-11 18:52:00
3:52 PM,86.0,68.0,55,30.04,10.0,West,11.5,-,N/A,,Scattered Clouds,260,2013-08-11 19:52:00
4:52 PM,84.0,69.1,61,30.03,10.0,WNW,12.7,-,N/A,,Scattered Clouds,300,2013-08-11 20:52:00
6:52 PM,82.9,66.0,56,30.03,10.0,NW,11.5,19.6,N/A,,Scattered Clouds,310,2013-08-11 22:52:00
7:52 PM,82.0,64.0,54,30.04,10.0,NW,9.2,-,N/A,,Scattered Clouds,320,2013-08-11 23:52:00
8:52 PM,77.0,64.9,66,30.05,10.0,Calm,Calm,-,N/A,,Scattered Clouds,0,2013-08-12 00:52:00
9:52 PM,75.0,64.9,71,30.06,10.0,Calm,Calm,-,N/A,,Partly Cloudy,0,2013-08-12 01:52:00
10:52 PM,69.1,66.0,90,30.08,10.0,Calm,Calm,-,N/A,,Clear,0,2013-08-12 02:52:00
11:52 PM,69.1,64.9,87,30.07,10.0,Calm,Calm,-,N/A,,Clear,0,2013-08-12 03:52:00